This demonstration page uses our WeatherBlox Daily Observations layout. Learn more.

Left ArrowRight Arrow

31.31129, -92.44514

Hourly Observations for December 26, 2015

Temp ( °F °C ) Dew Point ( °F °C ) Humidity (%) Winds ( mph kmh ) Pressure ( in mb ) Visibility ( mi km ) Precip ( " mm )
12:16 am 00:16 Cloudy 74 23.3 73 22.8 97 97 SSE 12 19 29.97 1015 7 11 0.00 0.00
12:51 am 00:51 Cloudy 73 23 72 22 94 94 SSE 14 22 29.97 1015 7 11 0.00 0.00
12:53 am 00:53 Cloudy 74 23.3 72 22.2 94 94 SSE 15 24 29.98 1015 7 11 0.00 0.00
1:08 am 01:08 Cloudy 74 23.3 72 22.2 94 94 SSE 13 20 29.97 1015 7 11 0.00 0.00
1:46 am 01:46 Cloudy 74 23.3 72 22.2 94 94 SSE 12 19 29.97 1015 7 11 0.00 0.00
1:53 am 01:53 Cloudy 74 23.3 72 22.2 94 94 SSE 12 19 29.97 1015 7 11 0.00 0.00
2:04 am 02:04 Cloudy 74 23.3 72 22.2 94 94 SSE 14 22 29.97 1015 8 13 0.00 0.00
2:14 am 02:14 Cloudy 74 23.3 72 22.2 94 94 SSE 12 19 29.97 1015 8 13 0.00 0.00
2:53 am 02:53 Cloudy 74 23.3 72 22.2 94 94 SSE 12 19 29.98 1015 8 13 0.00 0.00
3:22 am 03:22 Cloudy 74 23.3 71 21.7 91 91 SSE 13 20 29.97 1015 8 13 0.00 0.00
3:34 am 03:34 Cloudy 74 23.3 71 21.7 91 91 SSE 14 22 29.97 1015 8 13 0.00 0.00
3:45 am 03:45 Cloudy 74 23.3 71 21.7 91 91 SSE 13 20 29.97 1015 8 13 0.00 0.00
3:53 am 03:53 Cloudy 74 23.3 71 21.7 91 91 SSE 13 20 29.97 1015 8 13 0.00 0.00
4:09 am 04:09 Cloudy 73 22.8 71 21.7 94 94 SSE 12 19 29.97 1015 8 13 0.00 0.00
4:53 am 04:53 Mostly Cloudy 73 22.8 71 21.7 94 94 SSE 13 20 29.96 1015 8 13 0.00 0.00
5:33 am 05:33 Cloudy 73 22.8 70 21.1 90 90 SSE 14 22 29.97 1015 8 13 0.00 0.00
5:53 am 05:53 Cloudy 73 22.8 71 21.7 94 94 SSE 12 19 29.97 1015 8 13 0.00 0.00
6:01 am 06:01 Cloudy 73 22.8 70 21.1 90 90 SSE 13 20 29.97 1015 8 13 0.00 0.00
6:09 am 06:09 Cloudy 73 22.8 71 21.7 94 94 SSE 13 20 29.97 1015 8 13 0.00 0.00
6:53 am 06:53 Cloudy 73 22.8 70 21.1 90 90 SSE 12 19 29.98 1015 8 13 0.00 0.00
7:53 am 07:53 Cloudy with Mist and Fog 73 22.8 71 21.7 94 94 SE 10 17 29.99 1016 4 6 0.00 0.00
8:53 am 08:53 Cloudy 74 23.3 71 21.7 91 91 SE 13 20 30.00 1016 7 11 0.00 0.00
9:53 am 09:53 Cloudy 75 23.9 71 21.7 88 88 SSE 14 22 30.01 1016 8 13 0.00 0.00
10:53 am 10:53 Mostly Cloudy 78 25.6 71 21.7 79 79 SSE 16 26 30.00 1016 10 16 0.00 0.00
11:53 am 11:53 Partly Cloudy 79 26.1 70 21.1 74 74 S 16 26 29.98 1015 10 16 0.00 0.00
12:53 pm 12:53 Partly Cloudy 80 26.7 70 21.1 71 71 S 21 33 29.94 1014 10 16 0.00 0.00
1:53 pm 13:53 Partly Cloudy 80 26.7 71 21.7 74 74 SSE 16 26 29.91 1013 10 16 0.00 0.00
2:53 pm 14:53 Mostly Cloudy 80 26.7 70 21.1 71 71 SSE 14 22 29.89 1012 10 16 0.00 0.00
3:53 pm 15:53 Mostly Sunny 79 26.1 69 20.6 72 72 SSE 22 35 29.89 1012 10 16 0.00 0.00
4:53 pm 16:53 Partly Cloudy 78 25.6 69 20.6 74 74 SSE 14 22 29.88 1012 10 16 0.00 0.00
5:53 pm 17:53 Mostly Cloudy 75 23.9 69 20.6 82 82 SSE 10 17 29.88 1012 10 16 0.00 0.00
6:53 pm 18:53 Partly Cloudy 75 23.9 70 21.1 84 84 SE 13 20 29.88 1012 10 16 0.00 0.00
7:15 pm 19:15 Mostly Cloudy 75 23.9 70 21.1 84 84 SSE 15 24 29.88 1012 10 16 0.00 0.00
7:53 pm 19:53 Cloudy 75 23.9 70 21.1 84 84 SSE 12 19 29.88 1012 10 16 0.00 0.00
8:53 pm 20:53 Cloudy 75 23.9 70 21.1 84 84 SSE 12 19 29.87 1011 10 16 0.00 0.00
9:53 pm 21:53 Cloudy with Light Rain 74 23.3 71 21.7 91 91 SSE 10 17 29.86 1011 6 10 0.06 1.52
10:53 pm 22:53 Cloudy with Light Rain 75 23.9 71 21.7 88 88 SSE 15 24 29.85 1011 9 14 0.01 0.25
11:18 pm 23:18 Mostly Cloudy 75 23.9 71 21.7 88 88 SSE 18 30 29.85 1011 9 14 0.00 0.03
11:53 pm 23:53 Mostly Cloudy 74 23.3 71 21.7 91 91 S 12 19 29.86 1011 9 14 0.00 0.03

Powered by AerisWeather